Location: Unspecified
(0.0000°N, 0.0000°E)
Time: 07:52:23
(UTC+00:00)

Explorer 7 - Visible Passes

Search period start: 08 February 2023 00:00
Search period end: 18 February 2023 00:00
Orbit: 480 x 660 km, 50.3° (Epoch: 07 February)

Date Brightness Start Highest point End Pass type
(mag) Time Alt. Az. Time Alt. Az. Time Alt. Az.
08 Feb 10.1 19:55:22 10° W 19:58:11 15° SW 20:00:58 10° SSW visible
12 Feb 9.3 04:38:11 10° S 04:40:58 19° SE 04:43:43 10° E visible
13 Feb 7.9 04:39:14 16° S 04:41:48 39° SE 04:45:16 10° ENE visible
14 Feb 6.5 04:42:48 78° ENE 04:42:48 78° ENE 04:46:18 10° NE visible
15 Feb 8.6 04:45:47 18° NNE 04:45:47 18° NNE 04:46:53 10° NNE visible
